Regional Weather Roundup
Issued by NWS

Home | Current Version | Previous Version | Graphics & Text | Print | Product List | Glossary On
Versions: 1 2 3 4 5 6 7 8 9 10 11 12 13 14 15 16 17 18 19 20 21 22 23 24 25 26 27 28 29 30 31 32 33 34 35 36 37 38 39 40 41 42 43 44 45 46 47 48 49 50
086
ASUS45 KPSR 240910
RWRAZ

ARIZONA HOURLY REGIONAL WEATHER ROUNDUP
NATIONAL WEATHER SERVICE PHOENIX AZ
200 AM MST SAT JUN 24 2017

NOTE: FAIR INDICATES FEW OR NO CLOUDS BELOW 12,000 FEET WITH NO
SIGNIFICANT WEATHER AND/OR OBSTRUCTIONS TO VISIBILITY.

AZZ001>003-036-241000-
NORTHWEST ARIZONA

CITY           SKY/WX    TMP DP  RH WIND       PRES   REMARKS
BULLHEAD CITY  CLEAR     95  43  16 E3        29.68R
KINGMAN        CLEAR     80  38  22 SE7       29.93F
$$

AZZ004>008-015-016-018-241000-
NORTH CENTRAL ARIZONA

CITY           SKY/WX    TMP DP  RH WIND       PRES   REMARKS
GRAND CANYON   CLEAR     53  29  39 CALM      30.25S
PRESCOTT       CLEAR     70  40  33 S3        30.09F
FLAGSTAFF      CLEAR     57  30  35 CALM      30.26F
PAYSON         CLEAR     77  36  22 CALM      30.11F
PAGE           CLEAR     80  21  11 SE3       30.04R
$$

AZZ009>014-017-241000-
NORTHEAST ARIZONA

CITY           SKY/WX    TMP DP  RH WIND       PRES   REMARKS
WINSLOW        CLEAR     79  28  15 W14       30.06S
SAINT JOHNS    CLEAR     69  38  32 SW7       30.12F
WINDOW ROCK    PTCLDY    55  29  36 SW6       30.24R
SHOW LOW       CLEAR     66  37  34 CALM      30.22S
$$

AZZ540-542>544-546-548-241000-
GREATER PHOENIX AREA

CITY           SKY/WX    TMP DP  RH WIND       PRES   REMARKS
PHOENIX        MOCLDY    93  48  21 CALM      29.71F
LUKE AFB       PTCLDY    91  48  23 SW8       29.71F
DEER VALLEY    PTCLDY    90  46  21 CALM      29.74F
SCOTTSDALE     PTCLDY    93  46  19 N3        29.76F
MESA-GATEWAY   CLEAR     84  41  21 SE8       29.76S
$$

AZZ539-553-241000-
SOUTHWEST MARICOPA COUNTY AND PINAL COUNTY

CITY           SKY/WX    TMP DP  RH WIND       PRES   REMARKS
CASA GRANDE    PTCLDY    88  46  23 CALM      29.77F
GILA BEND      MOCLDY    91  45  20 S3        29.71S
$$

AZZ503-504-507>509-241000-
SOUTHEAST ARIZONA

CITY           SKY/WX    TMP DP  RH WIND       PRES   REMARKS
TUCSON         PTCLDY    86  46  24 SW3       29.88F
DAVIS-MONTHAN  PTCLDY    83  44  24 S6        29.87S
NOGALES        CLOUDY    81  46  29 CALM      29.98F
SIERRA VISTA   CLOUDY    83  39  20 W12       30.06S
DOUGLAS        MOCLDY    79  37  22 NW10      29.99R
SAFFORD        CLEAR     82  40  22 NW10      29.87F
$$

AZZ532-241000-
SOUTHWEST ARIZONA

CITY           SKY/WX    TMP DP  RH WIND       PRES   REMARKS
YUMA           PTCLDY    86  57  37 S5        29.70S
$$

CAZ041-043-047-048-061-525>527-560>570-241000-
SOUTHERN CALIFORNIA

CITY           SKY/WX    TMP DP  RH WIND       PRES   REMARKS
DOWNTOWN L.A.  CLOUDY    63  59  87 W3        29.90F
L.A. AIRPORT   CLOUDY    61  60  97 W10       29.90F FOG
SAN DIEGO      CLOUDY    66  62  87 NW8       29.90R
BURBANK        MOCLDY    65  59  81 CALM      29.89F
ONTARIO        PTCLDY    67  59  75 CALM      29.89F
RIVERSIDE      PTCLDY    68  60  75 W3        29.89F
PALM SPRINGS   PTCLDY    93  54  26 CALM      29.73F
EL CENTRO NAS  MOCLDY    86  64  47 S6        29.68S
IMPERIAL       MOCLDY    86  66  51 S7        29.67R
BLYTHE         PTCLDY    92  55  28 S9        29.68S
NEEDLES        PTCLDY   100  36  11 E7        29.69F
$$

NVZ020-UTZ003-241000-
SOUTHERN NEVADA-UTAH

CITY           SKY/WX    TMP DP  RH WIND       PRES   REMARKS
LAS VEGAS      PTCLDY    95  17   6 SW5       29.80S
SALT LAKE CITY CLEAR     66  41  40 SE5       30.14S
$$

NMZ009-TXZ055-241000-
NEW MEXICO-WEST TEXAS

CITY           SKY/WX    TMP DP  RH WIND       PRES   REMARKS
ALBUQUERQUE    PTCLDY    70  52  52 E21G32    30.19S
EL PASO        MOCLDY    83  52  34 NE10      30.03R
$$


........................KEY........................
SKY/WX - SKY CONDITION/WEATHER
TMP    - TEMPERATURE IN FAHRENHEIT
DP     - DEW POINT IN FAHRENHEIT
RH     - RELATIVE HUMIDITY IN PERCENT
WIND   - DIRECTION AND SPEED IN MILES PER HOUR (MPH)
VRB    - VARIABLE WIND DIRECTION
PRES   - MEAN SEA LEVEL PRESSURE IN INCHES OF MERCURY
         F - FALLING PRESSURE   R - RISING PRESSURE
         S - STEADY PRESSURE
VSB    - VISIBILITY IN MILES
HX     - HEAT INDEX IN FAHRENHEIT
WCI    - WIND CHILL INDEX IN FAHRENHEIT
TC     - TEMPERATURE IN CELSIUS WHICH IS ALSO KNOWN AS
         TEMPERATURE IN CENTIGRADE
AFB    - AIR FORCE BASE
         LUKE AFB IS LUKE AIR FORCE BASE
         DAVIS-MONTHAN IS DAVIS-MONTHAN AIR FORCE BASE
NAS    - NAVAL AIR STATION
         EL CENTRO NAS IS EL CENTRO NAVAL AIR STATION
N/A    - NOT AVAILABLE





USA.gov is the U.S. government's official web portal to all federal, state and local government web resources and services.